1st Responders/1st Detectors/Storm Spotters Weather Summary for Mason County, KY

Forecast Maps


Reg. NEXRAD Animation


National Fire Danger: Day 1 & 2 Map

Current NWS Watch/Warnings

SPC Convective Day 1 Outlook


Day 2 Outlook

(Click images to enlarge|Page will refresh every 5 minutes)
UK Ag. Weather Center Desktop Severe Weather Service[HERE]
Mason County, KY Hazardous Weather Outlook Webcast
(9 AM to 9 PM Mon-Fri)
[Fast]
[Dial-up]


UKAWC 1st Detectors/1st Responders Precision Weather Forecast For MASON County, Kentucky
(based on the NWS County Digital Forecast)

ISSUED AT 14:00 UTC ON FRIDAY SEP 18 2020
DAY FRIDAY
EDT 3HR 11A NOON 1P 2P 3P 4P 5P 6P 7P
MAX/MIN -- -- -- -- -- -- -- -- 68°
TEMP 59° 61° 63° 65° 67° 67° 67° 65° 61°
SKY COVER 32% 11% 7% 18% 27% 15% 12% 11% 8%
Clouds
DEW PT 50° 50° 49° 49° 49° 47° 47° 45° 45°
RH 72% 67% 62% 55% 51% 49% 50% 50% 56%
POP 12HR -- -- -- -- -- -- -- -- --
RAIN/SNOW (liq.equ) -- -- -- 0.00in -- -- -- -- --
SNOWFALL -- -- -- 0in -- -- -- -- --
WIND SPEED(MPH) 13 13 13 13 13 13 13 10 9
WIND Gust(MPH) 17 17 16 17 17 16 16 15 14
WIND DIR N N N N N N N N N
DEW -- -- -- -- -- -- -- -- --
HeatIndex 59 61 63 65 67 67 67 65 61
WIND CHILL -- -- -- -- -- -- -- -- --
SPRAY COND
DRY COND
LIVESTOCK HEATSTRESS 58.97 60.60 62.12 63.47 64.79 64.70 64.75 63.30 60.47



DAY SATURDAY SUNDAY MONDAY TUESDAY WEDNESDAY THURSDAY
EDT 6HR 8P 9P 10P 11P MIDN 1A 2A 3A 4A 5A 6A 7A 8A 9A 10A 11A NOON 1P 2P 3P 4P 5P 6P 7P 8P 9P 10P 11P 2A 5A 8A 11A 2P 5P 8P 2A 8A 2P 8P 2A 8A 2P 8P 2A 8A 2P 8P 2A 8A 2P 8P
MAX/MIN -- -- -- -- -- -- -- -- -- -- -- -- 41° -- -- -- -- -- -- -- -- -- -- 65° -- -- -- -- -- -- 43° -- -- 68° -- -- 45° 70° -- -- 43° 72° -- -- 47° 76° -- -- 52° 77° --
TEMP 56° 54° 52° 50° 49° 49° 47° 45° 45° 45° 43° 43° 43° 49° 52° 56° 58° 61° 63° 63° 63° 65° 61° 58° 54° 52° 52° 49° 45° 43° 43° 58° 65° 67° 58° 47° 45° 65° 58° 47° 45° 70° 59° 50° 49° 74° 63° 56° 54° 74° 65°
SKY COVER 2% 1% 1% 0% 0% 0% 0% 0% 1% 4% 5% 3% 4% 1% 1% 0% 0% 0% 0% 0% 0% 0% 0% 0% 0% 0% 0% 0% 0% 0% 0% 0% 0% 0% 0% 1% 1% 2% 3% 4% 5% 6% 5% 5% 6% 6% 10% 9% 10% 11% 20%
Clouds
DEW PT 45° 43° 43° 41° 41° 40° 40° 40° 40° 38° 38° 38° 38° 40° 40° 41° 41° 43° 43° 43° 41° 41° 40° 40° 40° 40° 40° 40° 38° 36° 36° 43° 43° 43° 43° 38° 40° 43° 45° 43° 41° 47° 49° 47° 47° 54° 56° 54° 52° 56° 56°
RH 64% 68% 70% 71% 73% 73% 76% 79% 82% 79% 82% 79% 79% 71% 63% 58% 55% 51% 47% 46% 44% 42% 45% 50% 59% 63% 63% 68% 73% 76% 79% 57% 42% 41% 57% 70% 82% 44% 64% 86% 89% 43% 67% 88% 89% 49% 74% 89% 95% 53% 72%
POP 12HR 0% -- -- -- -- -- -- -- -- -- -- -- 0% -- -- -- -- -- -- -- -- -- -- -- 0% -- -- -- -- -- 0% -- -- -- 0% -- 0% -- 0% -- 0% -- 1% -- 1% -- 2% -- 2% -- 10%
RAIN/SNOW (liq.equ) 0.00in -- -- -- -- -- 0.00in -- -- -- -- -- 0.00in -- -- -- -- -- 0.00in -- -- -- -- -- 0.00in -- -- -- 0.00in -- 0.00in -- 0.00in -- 0.00in 0.00in 0.00in -- -- -- -- -- -- -- -- -- -- -- -- -- --
SNOWFALL 0in -- -- -- -- -- 0in -- -- -- -- -- 0in -- -- -- -- -- 0in -- -- -- -- -- 0in -- -- -- 0in -- 0in -- 0in -- 0in 0in 0in -- -- -- -- -- -- -- -- -- -- -- -- -- --
WIND SPEED(MPH) 8 7 7 7 7 6 6 6 6 6 5 5 6 6 7 7 7 7 7 7 7 7 7 6 7 7 7 7 6 7 7 7 8 8 7 6 6 6 6 2 1 1 1 1 2 5 2 2 5 7 6
WIND DIR N N N N N N N NE NE NE NE NE NE NE NE NE NE NE NE NE NE NE NE NE NE NE NE NE NE NE NE NE E E NE E E E E E E N E S SW W W SW SW W W
HeatIndex 56 54 52 50 49 49 47 45 41 41 41 41 40 49 52 56 58 61 63 63 63 65 61 58 54 52 52 49 45 40 38 58 65 67 58 47 41 65 58 47 45 70 59 50 49 74 63 56 54 74 65
WIND CHILL -- -- -- -- -- -- -- 42° 42° 42° 40° 40° 39° -- -- -- -- -- -- -- -- -- -- -- -- -- -- -- 42° 39° 39° -- -- -- -- -- 42° -- -- -- -- -- -- -- -- -- -- -- -- -- --
SPRAY COND
DRY COND
LIVESTOCK HEATSTRESS 56.55 54.84 53.12 51.40 50.46 50.46 48.56 46.59 46.37 46.59 44.56 44.82 44.82 50.56 53.38 56.65 58.20 60.41 61.78 61.75 61.71 63.02 60.33 58.22 55.08 53.38 53.38 50.72 47.05 45.09 44.82 58.19 63.02 64.34 58.19 48.95 46.37 63.09 58.16 47.91 45.83 66.49 58.96 50.58 49.59 69.74 62.40 56.17 54.13 70.07 64.05

Click on individual weather variable above in left-hand column (ie., TEMP, RH, QPF 12HR) to view state forecast maps






NWS 48 Hr. Forecast Maps,

Regional Hourly Observations For MASON County, Kentucky
Issued at 1000 AM EDT FRI SEP 18 2020
...CENTRAL KENTUCKY...
  
CITY           SKY/WX    TMP DP  RH WIND       PRES   REMARKS
MT STERLING*   CLOUDY    59  54  82 N9        30.18R                  
FLEMING/MASON*   N/A     58  50  74 N12G17    30.18R                  
DANVILLE*      PTSUNNY   59  54  82 NE6       30.16R                  
RICHMOND*      CLOUDY    59  54  82 N5        30.14R                  
LEXINGTON        N/A     59  51  75 NE14      30.16R                  
FRANKFORT        N/A     61  50  67 N9G18     30.17R                  
LOUISVILLE       N/A     62  51  67 N12       30.18R                  
LEBANON*         N/A     61  57  88 N7        30.16R                  
GLASGOW*         N/A     62  55  76 NE8       30.13R                  
BOWLING GREEN    N/A     64  54  69 NE12      30.14R                  


Current NOWCAST not available:
Nowcasts are not issued routinely during fair weather. Only when
precipitation or other significant weather is occuring in this county will these
forecasts be issued. Currently, there is no short term forecast in effect.


Fire Weather Forecast For MASON County, KY
Provided by the National Weather Service:

Issued at: Fri Sep 18 10:05:01 EDT 2020

CLOUD COVER                    Mclear        Clear        Clear
PRECIP TYPE                      None         None         None
CHANCE PRECIP (%)                   0            0            0
TEMP (24H TREND)              69 (-9)     42 (-12)           67
RH % (24H TREND)              47 (-9)      85 (-4)           42
20FTWND-AM(MPH)                  N  7                   Lgt/Var
20FTWND-PM(MPH)                  N  9         N  7        NE  5
PRECIP AMOUNT                    0.00         0.00         0.00
PRECIP DURATION                                                
MIXING HGT(FT-AGL)               3810                      3050
TRANSPORT WND (MPH)              N 16                     NE 10
LAL                                 1            1            1
HAINES INDEX                        4            4            4

REMARKS...None.

.FORECAST FOR DAYS 3 THROUGH 7...
.SATURDAY NIGHT...Clear. Lows in the lower 40s. Northeast winds around
5 mph. 
.SUNDAY...Sunny. Highs in the upper 60s. Northeast winds 5 to 10 mph. 
.MONDAY...Clear. Lows in the mid 40s. Highs around 70. East winds around
5 mph. 
.TUESDAY...Clear. Lows in the lower 40s. Highs in the lower 70s. Northeast
winds around 5 mph. 
.WEDNESDAY...Mostly clear. Lows in the upper 40s. Highs in the mid 70s.
Southwest winds around 5 mph. 
.THURSDAY...Mostly clear. Lows in the lower 50s. Highs in the upper 70s.
Southwest winds around 5 mph. 

SPC's Fire Weather Web Tool (Excellent!), SPC's Fire Weather Outlooks, NWS Fire Weather WEB, Fire Danger Class Map,
Keetch-Byram Drought Index, ROMAN Web, Haines Index ,
WFAS's 10-hr Dead Fuel Moist., WFAS's 100-hr Dead Fuel Moist., Probablity of Ignition, Visual blackness Map, Palmer Drought Index, HPC's Rainfall Forecast Maps


Hazardous Weather Outlook For MASON County, Kentucky
500 AM EDT Fri Sep 18 2020

 DAY ONE  Today and tonight.

The probability for widespread hazardous weather is low.

 DAYS TWO THROUGH SEVEN  Saturday through Thursday.

The probability for widespread hazardous weather is low.

 SPOTTER INFORMATION STATEMENT  

Spotter activation is not expected at this time.

Latest MASON County, Kentucky Watches, Warnings and Advisories.
Additional Drought Info.: UKAWC Drought Page, Kentucky Drought Watch


7-Day Forecast For MASON County, KY

REST OF TODAY
Mostly sunny. Highs in the upper 60s. North winds 10 to 15 mph.

TONIGHT
Clear. Lows in the lower 40s. North winds 5 to 10 mph.

SATURDAY
Sunny. Highs in the upper 60s. Northeast winds around 5 mph.

SATURDAY NIGHT
Clear. Lows in the lower 40s. Northeast winds around 5 mph.

SUNDAY
Sunny. Highs in the upper 60s. Northeast winds 5 to 10 mph.

SUNDAY NIGHT
Clear. Lows in the mid 40s.

MONDAY
Sunny. Highs around 70.

MONDAY NIGHT
Clear. Lows in the lower 40s.

TUESDAY
Sunny. Highs in the lower 70s.

TUESDAY NIGHT
Clear. Lows in the upper 40s.

WEDNESDAY
Sunny. Highs in the mid 70s.

WEDNESDAY NIGHT
Clear. Lows in the lower 50s.

THURSDAY
Mostly sunny. Highs in the upper 70s.

Ag Weather Center, Department of Biosystems & Agricultural Engineering, University of Kentucky